Skip Page Navigation
NASA JPL Caltech
NASA Logo - Jet Propulsion Laboratory + View the NASA Portal
+ Center for Near-Earth Object Studies
JPL Home Earth Solar System Stars & Galaxies Technology
JPL Solar System Dynamics
BODIES ORBITS EPHEMERIDES TOOLS PHYSICAL DATA DISCOVERY FAQ SITE MAP
IMPORTANT: The SSD Announcement email list is now available. Major changes are coming in the near future, including possible hostname and/or URL changes. To be notified of such changes, subscribe to this email list.

Please visit this page for more details.


JPL Small-Body Database Browser
Search: [ help ]  
226724 (2004 PB62)
Classification: Main-belt Asteroid          SPK-ID: 2226724
Ephemeris | Orbit Diagram | Orbital Elements | Mission Design | Physical Parameters | Discovery Circumstances ]

[ show orbit diagram ]
Orbital Elements at Epoch 2458600.5 (2019-Apr-27.0) TDB
Reference: JPL 14 (heliocentric ecliptic J2000)
 Element Value Uncertainty (1-sigma)   Units 
e .1172096250023974 9.4388e-08  
a 2.693548269228593 2.7076e-08 au
q 2.377838486666453 2.4727e-07 au
i 14.48327641924712 6.6428e-06 deg
node 86.75420257710408 2.9584e-05 deg
peri 266.6172346776772 4.871e-05 deg
M 84.19936328680824 4.2569e-05 deg
tp 2458222.847923087479
(2018-Apr-14.34792309)
0.00019011 TDB
period 1614.676671905521
4.42
2.4347e-05
6.666e-08
d
yr
n .2229548529831393 3.3618e-09 deg/d
Q 3.009258051790732 3.025e-08 au
  Orbit Determination Parameters
   # obs. used (total)      193  
   data-arc span      6669 days (18.26 yr)  
   first obs. used      2000-09-29  
   last obs. used      2019-01-02  
   planetary ephem.      DE431  
   SB-pert. ephem.      SB431-N16  
   condition code      0  
   norm. resid. RMS      .63619  
   source      ORB  
   producer      Otto Matic  
   solution date      2019-Jul-14 07:33:55  

Additional Information
 Earth MOID = 1.42467 au 
 Jupiter MOID = 2.43641 au 
 T_jup = 3.315 
[ show covariance matrix ]

Ephemeris | Orbit Diagram | Orbital Elements | Mission Design | Physical Parameters | Discovery Circumstances ]

Physical Parameter Table
Parameter Symbol Value Units Sigma Reference Notes
absolute magnitude H 15.9   n/a MPO454628  

226724 (2004 PB62)          Discovered 2004-Aug-09 by Siding Spring Survey at Siding Spring
Reference: 20091202/Numbers.arcLast Updated: 2009-12-04

Alternate Designations
 2004 PB62 = 2005 YW278 
Ephemeris | Orbit Diagram | Orbital Elements | Mission Design | Physical Parameters | Discovery Circumstances ]
ABOUT SSD CREDITS/AWARDS PRIVACY/COPYRIGHT GLOSSARY LINKS
FirstGov 2019-Dec-10 00:07 UT
(server date/time)  
NASA Home Page
Site Manager:   Ryan S. Park
Webmaster  Alan B. Chamberlin